WetterOnline ( https://www.wetteronline.de )

Wetter aktuell Gottfrieding

Aktuelles Wetter: Gottfrieding (350m)

6-stündlich | Neueste Meldungen
Ortszeit Temperatur Wetter
So, 01.11. 1:00 3.6° C Nebel
Sa, 31.10. 19:00 8.0° C wolkig
Sa, 31.10. 13:00 13.4° C leicht bewölkt
Sa, 31.10. 7:00 9.9° C bedeckt
Sa, 31.10. 1:00 11.9° C bedeckt
Fr, 30.10. 19:00 11.9° C bedeckt
Fr, 30.10. 13:00 11.9° C leichter Regen
Fr, 30.10. 7:00 10.6° C leichter Regen
Ortszeit Temperatur Wetter
So, 01.11. 2:00 3.4° C Nebel
So, 01.11. 1:50 3.4° C Nebel
So, 01.11. 1:40 3.0° C Nebel
So, 01.11. 1:30 3.3° C Nebel
So, 01.11. 1:20 3.3° C Nebel
So, 01.11. 1:10 3.0° C Nebel
So, 01.11. 1:00 3.6° C Nebel
So, 01.11. 0:30 3.3° C Nebel
So, 01.11. 0:00 4.4° C Nebel
Sa, 31.10. 23:30 4.7° C Nebel
Sa, 31.10. 23:00 5.0° C Nebel
Ortszeit Relative Feuchte Sichtweite
So, 01.11. 1:00 100% 100 m
Sa, 31.10. 19:00 93% 23 km
Sa, 31.10. 13:00 67% 25 km
Sa, 31.10. 7:00 88% 50 km
Sa, 31.10. 1:00 74% 65 km
Fr, 30.10. 19:00 84% 60 km
Fr, 30.10. 13:00 91% 26 km
Fr, 30.10. 7:00 90% 23 km
Ortszeit Relative Feuchte Sichtweite
So, 01.11. 2:00 100% 0.2 km
So, 01.11. 1:50 100% -
So, 01.11. 1:40 100% -
So, 01.11. 1:30 100% 100 m
So, 01.11. 1:20 100% -
So, 01.11. 1:10 99% -
So, 01.11. 1:00 100% 100 m
So, 01.11. 0:30 99% <100 m
So, 01.11. 0:00 99% <100 m
Sa, 31.10. 23:30 100% 100 m
Sa, 31.10. 23:00 99% 100 m
Ortszeit Niederschlagsmenge Niederschlagsart
So, 01.11. 1:00 0.0 l/m2 in 6 Std. -
Sa, 31.10. 19:00 0.0 l/m2 in 12 Std. -
Sa, 31.10. 13:00 0.0 l/m2 in 6 Std. -
Sa, 31.10. 7:00 0.1 l/m2 in 12 Std. -
Sa, 31.10. 1:00 0.1 l/m2 in 6 Std. Regen
Fr, 30.10. 19:00 0.3 l/m2 in 12 Std. Regen
Fr, 30.10. 13:00 0.2 l/m2 in 6 Std. Regen
Fr, 30.10. 7:00 5 l/m2 in 12 Std. Regen
Ortszeit Niederschlagsmenge Niederschlagsart
So, 01.11. 2:00 0.0 l/m2 in 1 Std. -
So, 01.11. 1:50 keine Meldung -
So, 01.11. 1:40 keine Meldung -
So, 01.11. 1:30 0.0 l/m2 in 1 Std. -
So, 01.11. 1:20 keine Meldung -
So, 01.11. 1:10 keine Meldung -
So, 01.11. 1:00 0.0 l/m2 in 1 Std. -
So, 01.11. 0:30 0.0 l/m2 in 1 Std. -
So, 01.11. 0:00 0.0 l/m2 in 1 Std. -
Sa, 31.10. 23:30 0.0 l/m2 in 1 Std. -
Sa, 31.10. 23:00 0.0 l/m2 in 1 Std. -
Ortszeit Stärke Spitze Richtung
km/h Bft. km/h Grad Sektor
So, 01.11. 1:00 4 1 11 210° SW
Sa, 31.10. 19:00 7 2 22 60° NO
Sa, 31.10. 13:00 7 2 11 70° O
Sa, 31.10. 7:00 4 1 25 230° SW
Sa, 31.10. 1:00 13 3 26 240° SW
Fr, 30.10. 19:00 11 2 29 240° SW
Fr, 30.10. 13:00 18 3 36 260° W
Fr, 30.10. 7:00 22 4 32 240° SW
Ortszeit Stärke Spitze Richtung
km/h Bft. km/h Grad Sektor
So, 01.11. 2:00 4 1 7 130° SO
So, 01.11. 1:50 4 1 - 130° SO
So, 01.11. 1:40 6 1 - 320° NW
So, 01.11. 1:30 0 0 4 - -
So, 01.11. 1:20 0 0 - 260° W
So, 01.11. 1:10 2 1 - 240° SW
So, 01.11. 1:00 4 1 7 210° SW
So, 01.11. 0:30 2 1 7 310° NW
So, 01.11. 0:00 7 2 11 60° NO
Sa, 31.10. 23:30 4 1 11 90° O
Sa, 31.10. 23:00 4 1 7 70° O
Ortszeit Untergrenze Bedeckung Gattung
total tief tief mittel hoch
So, 01.11. 1:00 <30 m 8/8 0/8 - - -
Sa, 31.10. 19:00 7200 m 7/8 0/8 - - -
Sa, 31.10. 13:00 750 m 2/8 1/8 - - -
Sa, 31.10. 7:00 810 m 8/8 8/8 - - -
Sa, 31.10. 1:00 1020 m 8/8 8/8 - - -
Fr, 30.10. 19:00 3300 m 8/8 8/8 - - -
Fr, 30.10. 13:00 570 m 8/8 8/8 - - -
Fr, 30.10. 7:00 510 m 8/8 8/8 - - -
Ortszeit Bedeckungsgrad in Achtel und Wolkenuntergrenze
So, 01.11. 2:00 8(<30m) 8(7200m)
So, 01.11. 1:50 8(<30m) 8(7200m)
So, 01.11. 1:40 8(<30m) 8(7200m)
So, 01.11. 1:30 8(<30m) 8(7200m) 8(7200m)
So, 01.11. 1:20 8(<30m) 8(7200m)
So, 01.11. 1:10 8(<30m)
So, 01.11. 1:00 8(<30m)
So, 01.11. 0:30 8(<30m)
So, 01.11. 0:00 5(<30m)
Sa, 31.10. 23:30 6(<30m)
Sa, 31.10. 23:00 3(<30m)
Ortszeit Luftdruck NN (hPa) Tendenz (hPa in 3 Std.)
So, 01.11. 1:00 1023 - 0,4
Sa, 31.10. 19:00 1023 - 0,1
Sa, 31.10. 13:00 1024 - 1,6
Sa, 31.10. 7:00 1027 + 0,2
Sa, 31.10. 1:00 1027 + 0,4
Fr, 30.10. 19:00 1025 + 0,9
Fr, 30.10. 13:00 1024 + 0,4
Fr, 30.10. 7:00 1023 + 0,3
Ortszeit Luftdruck NN (hPa) Tendenz (hPa in 3 Std.)
So, 01.11. 2:00 1023 - 0,1
So, 01.11. 1:50 1023 keine Meldung
So, 01.11. 1:40 1023 keine Meldung
So, 01.11. 1:30 1023 - 0,3
So, 01.11. 1:20 1023 keine Meldung
So, 01.11. 1:10 1023 keine Meldung
So, 01.11. 1:00 1023 - 0,4
So, 01.11. 0:30 1023 - 0,4
So, 01.11. 0:00 1023 - 0,5
Sa, 31.10. 23:30 1023 - 0,1
Sa, 31.10. 23:00 1023 0,0
Ortszeit Schneehöhe (cm)
So, 01.11. 1:00 0
Sa, 31.10. 19:00 0
Sa, 31.10. 13:00 0
Sa, 31.10. 7:00 0
Sa, 31.10. 1:00 0
Fr, 30.10. 19:00 0
Fr, 30.10. 13:00 0
Fr, 30.10. 7:00 0
Ortszeit Schneehöhe (cm)
So, 01.11. 2:00 0
So, 01.11. 1:50 0
So, 01.11. 1:40 0
So, 01.11. 1:30 0
So, 01.11. 1:20 0
So, 01.11. 1:10 0
So, 01.11. 1:00 0
So, 01.11. 0:30 0
So, 01.11. 0:00 0
Sa, 31.10. 23:30 0
Sa, 31.10. 23:00 0
Link zu dieser Seite / Seite empfehlen

Das Wetter in ...